Location: Byszew
(52.1813°N, 19.2693°E)
Time: 02:43:20
(UTC+00:00)

Envisat - Pass Details

Date: 30 January 2022
Orbit: 764 x 765 km, 98.2° (Epoch: 28 May)

Event Time Altitude Azimuth Distance (km) Brightness Sun altitude
Rises 16:30:11 0° 229° (SW) 3,223 7.5 -9.9°
Drops below altitude 10° 16:35:13 10° 273° (W) 2,317 6.8 -10.6°
Maximum altitude 16:35:43 10° 278° (W) 2,309 6.7 -10.7°
Sets 16:41:18 0° 328° (NNW) 3,242 6.5 -11.5°
